This is the latest recevied weather packets stored in our database for station/object K3PPP. If no packets are shown the sender has not sent any weather packets the latest 10 day(s).
| Time | Temp. | Humidity | Pressure | Rain* | Wind** | Luminosity | Snow |
|---|---|---|---|---|---|---|---|
| 1778148284 | 3.33° C | 95% | 1012.4 hPa | 0 mm | - | 1 W/m² | - |
| 1778147982 | 2.78° C | 94% | 1012.5 hPa | 0 mm | - | 0 W/m² | - |
| 1778147680 | 2.78° C | 94% | 1012.4 hPa | 0 mm | - | 0 W/m² | - |
| 1778147376 | 2.78° C | 94% | 1012.5 hPa | 0 mm | - | 0 W/m² | - |
| 1778147072 | 2.78° C | 94% | 1012.6 hPa | 0 mm | - | 0 W/m² | - |
| 1778146770 | 3.33° C | 94% | 1012.4 hPa | 0 mm | - | 0 W/m² | - |
| 1778146467 | 3.33° C | 94% | 1012.4 hPa | 0 mm | - | 0 W/m² | - |
| 1778146166 | 3.33° C | 94% | 1012.4 hPa | 0 mm | - | 0 W/m² | - |
| 1778145862 | 3.89° C | 94% | 1012.5 hPa | 0 mm | - | 0 W/m² | - |
| 1778145558 | 3.89° C | 94% | 1012.6 hPa | 0 mm | - | 0 W/m² | - |
| 1778145255 | 3.89° C | 94% | 1012.6 hPa | 0 mm | - | 0 W/m² | - |
| 1778144950 | 3.89° C | 93% | 1012.5 hPa | 0 mm | - | 0 W/m² | - |
| 1778144647 | 3.89° C | 92% | 1012.3 hPa | 0 mm | - | 0 W/m² | - |
| 1778144344 | 3.89° C | 91% | 1012.5 hPa | 0 mm | - | 0 W/m² | - |
| 1778144041 | 4.44° C | 91% | 1012.3 hPa | 0 mm | - | 0 W/m² | - |
| 1778143738 | 4.44° C | 89% | 1012.3 hPa | 0 mm | - | 0 W/m² | - |
| 1778143435 | 5° C | 89% | 1012.4 hPa | 0 mm | - | 0 W/m² | - |
| 1778143132 | 4.44° C | 86% | 1012.4 hPa | 0 mm | - | 0 W/m² | - |
| 1778142828 | 5° C | 89% | 1012.4 hPa | 0 mm | - | 0 W/m² | - |
| 1778142525 | 5° C | 89% | 1012.4 hPa | 0 mm | - | 0 W/m² | - |
| 1778142220 | 5° C | 88% | 1012.5 hPa | 0 mm | - | 0 W/m² | - |
| 1778141918 | 5° C | 91% | 1012.8 hPa | 0 mm | - | 0 W/m² | - |
| 1778141613 | 5° C | 93% | 1012.6 hPa | 0 mm | - | 0 W/m² | - |
| 1778141311 | 5° C | 92% | 1012.6 hPa | 0 mm | - | 0 W/m² | - |
| 1778141006 | 5° C | 90% | 1012.8 hPa | 0 mm | - | 0 W/m² | - |
* Rain latest hour (hover to see other rain measurements)
** Current wind speed in m/s (hover to see current wind gust speed)